Crookston, MN

5:13 AM CDT on June 28, 2017 (GMT -0500)
Crookston Municipal-Kirkwood

Weather History for KCKN - August, 2013

Change the Weather History Date:

Tuesday, August 6, 2013

  Actual Average Record
Temperature  
Mean Temperature 60 °F -  
Max Temperature 69 °F 76 °F 91 °F (2005)
Min Temperature 50 °F 54 °F 50 °F (2013)
Degree Days  
Heating Degree Days 6    
Growing Degree Days 10 (Base 50)    
Moisture  
Dew Point 56 °F    
Average Humidity 85    
Maximum Humidity 94    
Minimum Humidity 68    
Precipitation  
Precipitation 0.00 in - - ()
Sea Level Pressure  
Sea Level Pressure 29.79 in    
Wind  
Wind Speed 6 mph (NW)    
Max Wind Speed 16 mph    
Max Gust Speed 20 mph    
Visibility 10 miles    
Events Rain    
Averages and records for this station are not official NWS values.
T = Trace of Precipitation, MM = Missing Value Source: NWS Daily Summary

Daily Weather History Graph

Daily Weather History Graph

Search for Another Location

Airport or City:

Trip Planner

Search our weather history database for the weather conditions in past years. The results will help you decide how hot, cold, wet, or windy it might be!

Date:

Astronomy

Aug. 06, 2013 Rise Set
Actual Time 6:10 AM CDT 8:53 PM CDT
Civil Twilight 5:34 AM CDT 9:28 PM CDT
Nautical Twilight 4:49 AM CDT 10:13 PM CDT
Astronomical Twilight 3:56 AM CDT 11:06 PM CDT
Moon 6:06 AM CDT (8/6) 8:22 PM CDT (8/6)
Length of Visible Light 15h 54m
Length of Day
14h 43m
Waning Crescent, 0% of the Moon is Illuminated
Aug 6
Waning Crescent
Aug 6
New
Aug 14
First Quarter
Aug 20
Full
Aug 28
Last Quarter

Hourly Weather History & Observations

Time (CDT) Temp. Dew Point Humidity Pressure Visibility Wind Dir Wind Speed Gust Speed Precip Events Conditions
12:15 AM 60.8 °F 53.6 °F 77% 29.80 in 10.0 mi South 6.9 mph - N/A   Clear
12:34 AM 60.8 °F 53.6 °F 77% 29.79 in 10.0 mi South 5.8 mph - N/A   Clear
12:54 AM 55.4 °F 53.6 °F 94% 29.78 in 10.0 mi SSE 6.9 mph - N/A   Clear
1:15 AM 57.2 °F 53.6 °F 88% - 10.0 mi SSW 4.6 mph - N/A   Clear
1:34 AM 57.2 °F 53.6 °F 88% 29.79 in 10.0 mi South 4.6 mph - N/A   Clear
1:55 AM 57.2 °F 53.6 °F 88% 29.79 in 10.0 mi South 6.9 mph - N/A   Clear
2:14 AM 55.4 °F 53.6 °F 94% 29.78 in 10.0 mi South 5.8 mph - N/A   Clear
2:34 AM 57.2 °F 53.6 °F 88% 29.78 in 10.0 mi South 5.8 mph - N/A   Clear
2:55 AM 55.4 °F 53.6 °F 94% 29.77 in 10.0 mi South 5.8 mph - N/A   Clear
3:14 AM 55.4 °F 53.6 °F 94% 29.77 in 10.0 mi South 6.9 mph - N/A   Clear
3:34 AM 57.2 °F 53.6 °F 88% 29.76 in 10.0 mi South 5.8 mph - N/A   Clear
3:54 AM 57.2 °F 53.6 °F 88% 29.75 in 10.0 mi SSW 6.9 mph - N/A   Clear
4:14 AM 57.2 °F 53.6 °F 88% 29.74 in 10.0 mi South 8.1 mph - N/A   Clear
4:35 AM 57.2 °F 53.6 °F 88% 29.73 in 10.0 mi South 3.5 mph - N/A   Clear
4:54 AM 57.2 °F 53.6 °F 88% 29.72 in 10.0 mi South 5.8 mph - N/A   Clear
5:14 AM 55.4 °F 53.6 °F 94% 29.73 in 10.0 mi SSW 8.1 mph - N/A   Mostly Cloudy
5:35 AM 57.2 °F 53.6 °F 88% 29.74 in 10.0 mi SSW 9.2 mph - N/A   Mostly Cloudy
5:54 AM 57.2 °F 53.6 °F 88% 29.74 in 10.0 mi SSW 4.6 mph - N/A   Scattered Clouds
6:14 AM 55.4 °F 53.6 °F 94% 29.74 in 10.0 mi Calm Calm - N/A   Scattered Clouds
6:34 AM 57.2 °F 53.6 °F 88% 29.75 in 10.0 mi Calm Calm - N/A   Mostly Cloudy
6:54 AM 57.2 °F 55.4 °F 94% 29.76 in 10.0 mi Calm Calm - N/A   Mostly Cloudy
7:15 AM 57.2 °F 55.4 °F 94% 29.76 in 10.0 mi South 3.5 mph - N/A   Mostly Cloudy
7:34 AM 57.2 °F 55.4 °F 94% 29.75 in 10.0 mi South 3.5 mph - N/A   Mostly Cloudy
7:54 AM 57.2 °F 55.4 °F 94% 29.74 in 10.0 mi SSE 4.6 mph - N/A Rain Light Rain
8:15 AM 57.2 °F 55.4 °F 94% 29.74 in 10.0 mi Calm Calm - N/A   Overcast
8:34 AM 57.2 °F 55.4 °F 94% 29.75 in 10.0 mi SSE 4.6 mph - N/A   Overcast
8:54 AM 60.8 °F 57.2 °F 88% 29.74 in 10.0 mi SE 4.6 mph - N/A   Mostly Cloudy
9:14 AM 60.8 °F 57.2 °F 88% 29.74 in 10.0 mi SSW 6.9 mph - N/A   Scattered Clouds
9:34 AM 60.8 °F 57.2 °F 88% 29.74 in 10.0 mi Calm Calm - N/A Rain Light Rain
9:54 AM 62.6 °F 60.8 °F 94% 29.74 in 10.0 mi SSW 3.5 mph - N/A Rain Rain
10:14 AM 62.6 °F 60.8 °F 94% 29.74 in 10.0 mi SW 5.8 mph - N/A   Mostly Cloudy
10:35 AM 64.4 °F 60.8 °F 88% 29.74 in 10.0 mi SSW 6.9 mph - N/A   Scattered Clouds
10:54 AM 66.2 °F 62.6 °F 88% 29.74 in 10.0 mi SW 6.9 mph - N/A   Scattered Clouds
11:14 AM 66.2 °F 60.8 °F 83% 29.74 in 10.0 mi WSW 5.8 mph - N/A Rain Light Rain
11:35 AM 66.2 °F 60.8 °F 83% 29.74 in 10.0 mi West 6.9 mph - N/A   Mostly Cloudy
11:54 AM 66.2 °F 60.8 °F 83% 29.74 in 10.0 mi WSW 4.6 mph - N/A   Mostly Cloudy
12:15 PM 66.2 °F 60.8 °F 83% 29.74 in 10.0 mi WNW 9.2 mph - N/A   Scattered Clouds
12:34 PM 68.0 °F 60.8 °F 78% 29.75 in 10.0 mi NNW 11.5 mph - N/A   Mostly Cloudy
12:54 PM 66.2 °F 60.8 °F 83% 29.75 in 10.0 mi North 15.0 mph 18.4 mph N/A   Mostly Cloudy
1:15 PM 64.4 °F 60.8 °F 88% 29.75 in 10.0 mi North 9.2 mph - N/A Rain Light Rain
1:34 PM 64.4 °F 60.8 °F 88% 29.75 in 10.0 mi North 9.2 mph - N/A Rain Light Rain
1:54 PM 64.4 °F 60.8 °F 88% 29.76 in 10.0 mi North 9.2 mph - N/A Rain Light Rain
2:15 PM 68.0 °F 60.8 °F 78% 29.76 in 10.0 mi North 9.2 mph - N/A   Scattered Clouds
2:34 PM 69.8 °F 60.8 °F 73% 29.76 in 10.0 mi North 8.1 mph - N/A   Scattered Clouds
2:54 PM 69.8 °F 60.8 °F 73% 29.76 in 10.0 mi NNE 9.2 mph - N/A   Scattered Clouds
3:15 PM 69.8 °F 59.0 °F 68% 29.77 in 10.0 mi NNE 10.4 mph - N/A   Mostly Cloudy
3:34 PM 68.0 °F 60.8 °F 78% 29.77 in 10.0 mi North 9.2 mph - N/A   Overcast
3:54 PM 66.2 °F 59.0 °F 78% 29.78 in 10.0 mi North 9.2 mph - N/A   Overcast
4:15 PM 68.0 °F 60.8 °F 78% 29.78 in 10.0 mi North 13.8 mph - N/A   Overcast
4:34 PM 66.2 °F 60.8 °F 83% 29.79 in 10.0 mi North 10.4 mph 16.1 mph N/A   Overcast
4:55 PM 66.2 °F 59.0 °F 78% 29.80 in 10.0 mi NNE 10.4 mph 19.6 mph N/A   Mostly Cloudy
5:14 PM 64.4 °F 57.2 °F 77% 29.80 in 10.0 mi NNE 9.2 mph 17.3 mph N/A Rain Light Rain
5:34 PM 64.4 °F 57.2 °F 77% 29.81 in 10.0 mi NNE 8.1 mph - N/A Rain Light Rain
5:55 PM 64.4 °F 60.8 °F 88% 29.81 in 10.0 mi NNE 9.2 mph - N/A   Light Drizzle
6:14 PM 64.4 °F 57.2 °F 77% 29.81 in 10.0 mi North 16.1 mph 19.6 mph N/A   Mostly Cloudy
6:34 PM 62.6 °F 59.0 °F 88% 29.82 in 10.0 mi North 10.4 mph - N/A   Overcast
6:55 PM 64.4 °F 59.0 °F 83% 29.83 in 10.0 mi North 10.4 mph - N/A   Mostly Cloudy
7:14 PM 66.2 °F 57.2 °F 73% 29.83 in 10.0 mi North 10.4 mph 17.3 mph N/A   Mostly Cloudy
7:34 PM 64.4 °F 55.4 °F 73% 29.84 in 10.0 mi North 12.7 mph - N/A   Scattered Clouds
7:55 PM 64.4 °F 55.4 °F 73% 29.84 in 10.0 mi North 12.7 mph 17.3 mph N/A   Clear
8:14 PM 62.6 °F 55.4 °F 77% 29.85 in 10.0 mi North 8.1 mph - N/A   Clear
8:34 PM 60.8 °F 53.6 °F 77% 29.85 in 10.0 mi North 8.1 mph - N/A   Clear
8:55 PM 59.0 °F 53.6 °F 82% 29.86 in 10.0 mi North 8.1 mph - N/A   Clear
9:14 PM 57.2 °F 51.8 °F 82% 29.87 in 10.0 mi North 6.9 mph - N/A   Clear
9:34 PM 57.2 °F 51.8 °F 82% 29.88 in 10.0 mi North 8.1 mph - N/A   Clear
9:55 PM 55.4 °F 50.0 °F 82% 29.88 in 10.0 mi North 5.8 mph - N/A   Clear
10:14 PM 53.6 °F 50.0 °F 88% 29.88 in 10.0 mi North 5.8 mph - N/A   Clear
10:35 PM 51.8 °F 48.2 °F 88% 29.89 in 10.0 mi NNW 3.5 mph - N/A   Clear
10:54 PM 51.8 °F 48.2 °F 88% 29.90 in 10.0 mi NNW 3.5 mph - N/A   Clear
11:14 PM 51.8 °F 48.2 °F 88% 29.90 in 10.0 mi North 4.6 mph - N/A   Clear
11:35 PM 50.0 °F 46.4 °F 87% 29.90 in 10.0 mi Calm Calm - N/A   Clear
11:54 PM 51.8 °F 46.4 °F 82% 29.90 in 10.0 mi Calm Calm - N/A   Clear